Regional Weather Roundup
Issued by NWS Green Bay, WI

Home | Current Version | Previous Version | Graphics & Text | Print | Product List | Glossary Off
Versions: 1 2 3 4 5 6 7 8 9 10 11 12 13 14 15 16 17 18 19 20 21 22 23 24 25 26 27 28 29 30 31 32 33 34 35 36 37 38 39 40 41 42 43 44 45 46 47 48 49 50

000
ASUS43 KGRB 230911
RWRGRB

NORTH-CENTRAL AND NORTHEAST WISCONSIN REGIONAL WEATHER ROUNDUP
NATIONAL WEATHER SERVICE GREEN BAY WI
400 AM CDT SAT JUL 23 2016

WIZ005-009-010>012-018-019-231000-
NORTH CENTRAL WISCONSIN

CITY           SKY/WX    TMP DP  RH WIND       PRES   REMARKS
IRONWOOD       CLEAR     57  57 100 CALM      30.01S
MANITOWISH WTR PTCLDY    58  58 100 CALM      30.03F FOG
ARBOR VITAE    CLEAR     62  60  94 CALM      30.03S
EAGLE RIVER    PTCLDY    59  59 100 CALM      30.03S
LAND O LAKES   PTCLDY    56  56 100 CALM      30.05R FOG
RHINELANDER    FOG       63  61  93 CALM      30.04S VSB 3/4
PHILLIPS         N/A     64  64 100 CALM      30.02F FOG
ANTIGO         PTCLDY    63  63  99 CALM      30.03F
TOMAHAWK       MOCLDY    61  60  96 CALM      30.04R
MERRILL        CLOUDY    62  62 100 CALM      30.02F
$$

WIZ013-073-231000-
NORTHEAST WISCONSIN

CITY           SKY/WX    TMP DP  RH WIND       PRES   REMARKS
IRON MOUNTAIN  CLEAR     60  55  83 CALM      29.99S
MARINETTE      PTCLDY    67  64  90 NW5       29.98R
OCONTO         MOCLDY   N/A N/A N/A CALM      29.97R
$$

WIZ017-030-035>037-045-231000-
CENTRAL WISCONSIN

CITY           SKY/WX    TMP DP  RH WIND       PRES   REMARKS
MEDFORD        CLOUDY    64  64 100 CALM      30.02S
WAUSAU         CLOUDY    67  66  97 CALM      29.99F
MOSINEE        PTCLDY    64  64 100 CALM      30.01F
MARSHFIELD     CLEAR     68  64  87 CALM      30.00F
WISC RAPIDS    CLEAR     67  64  90 CALM      30.00F FOG
STEVENS POINT  CLEAR     62  62  99 CALM      30.01S
WAUPACA        CLEAR     69  68  99 CALM      29.98F
SHAWANO        FOG       68  66  95 CALM      29.99S VSB 1/2
CLINTONVILLE   CLEAR     68  64  88 CALM      29.99R
WAUTOMA        PTCLDY    66  65  96 CALM      29.99S
$$

WIZ038-039-048-051-231000-
FOX VALLEY

CITY           SKY/WX    TMP DP  RH WIND       PRES   REMARKS
NWS GREEN BAY  CLEAR     66  66 100 CALM      29.97F
APPLETON       PTCLDY    72  63  73 CALM      29.97F
OSHKOSH        CLEAR     71  67  87 CALM      29.97F
FOND DU LAC    FOG       71  69  93 S3        29.98F VSB 1/4
$$

WIZ022-050-052-231000-
EAST CENTRAL WISCONSIN

CITY           SKY/WX    TMP DP  RH WIND       PRES   REMARKS
EPHRAIM        FAIR      69  64  86 NW3       29.96S
WASHINGTON ISL NOT AVBL
STURGEON BAY   MOCLDY    69  67  93 CALM      29.98S
MANITOWOC      CLEAR     72  68  87 CALM      29.97S
SHEBOYGAN      PTCLDY    70  68  93 W3        29.97S
$$

LMZ563-521-522-541>543-231000-
LAKESHORE

STATION/POSITION TIME  TEMP    WIND        PRES    VSBY  WAVE
                       AIR SEA DIR/SP/G                  HT/PER
                 (UTC) (F)     (DEG/KT/KT) (MB)    (MI)  (FT/S)
SHEBOYGAN LKSHOR 0900   75     300/  2/  2 1014.7S
KEWAUNEE LKSHORE 0800   71     300/  5/  6 1014.2R
NORTHPORT PIER   0800   74     270/  4/  7 1014.2R
N MID LAKE BUOY  0850   71 68  270/  6/  6 1013.6R         1/ 5
S GREEN BAY BUOY 0800   74 75  240/  2/  2   N/A
CHAMBERS ISLAND  0800   66      CALM  /  4 1014.6R
MENOMINEE LKSHOR 0800   74     270/  2/  4 1013.7R
$$



USA.gov is the U.S. government's official web portal to all federal, state and local government web resources and services.